sat.trackr.live / text

‹ back to catalog

GLOBALSTAR M082

NORAD 38042 · 2011-080C

PAYLOAD ACTIVE UNKNOWN

§ Identity

Operator
Country
GLOB
Launch date
2011-12-28
Launch site
TYMSC
Launch vehicle
Mass (kg)
RCS (m²)
4.69

Purposes: comms

External: N2YO · Heavens-Above · Gunter

§ Orbital elements

Epoch: 2026-09-04T01:36:25.109856Z

Period
114.08 min
Inclination
52.0067°
Eccentricity
0.0000969
Mean motion
12.62262757 rev/d
Perigee alt
1,412.9 km
Apogee alt
1,414.4 km
Semi-major
7,791.8 km
B*
2.2888e-5
RAAN
94.3988°
Arg perigee
88.4585°
Mean anomaly
80.9736°
Rev number
67,955

§ Raw data

GLOBALSTAR M0821 38042U 11080C   26247.06695729 -.00000100  00000+0  22888-4 0  99952 38042  52.0067  94.3988 0000969  88.4585  80.9736 12.62262757679557

JSON: /api/v1/satellites/38042 · /tle

For live sub-satellite position, see the globe view (requires WebGL).

§ Visibility from observer

Set your observer location to see the next 7 days of passes ≥ 10°. The values pass through the URL so the page stays shareable.

No JS? Fill the form by hand. The geolocation button needs JavaScript.